Hourly Data Report for August 28, 2021

TORONTO CITY
ONTARIO
Current Station Operator: ECCC - MSC

43°40'00.000" N
79°24'00.000" W
112.50 m
6158355
71508
XTO

Download Data

Hourly Data (August 2021)
Hourly Data Report for August 28, 2021
TIME
LST
Temp Definition
°C
Dew Point Definition
°C
Rel Hum Definition
%
Precip. Amount Definition
mm

Wind Dir Definition
10's deg

Wind Spd Definition
km/h
Visibility Definition
km
Stn Press Definition
kPa
Hmdx Definition


Wind Chill Definition


Weather Definition


00:00 22.8 15.4 63 0.0       100.85 27   LegendNANA
01:00 22.3 15.7 66 0.0       100.85 27   LegendNANA
02:00 22.1 15.8 68 0.0       100.82 27   LegendNANA
03:00 21.7 15.6 68 0.0       100.80 26   LegendNANA
04:00 20.3 14.0 67 0.0       100.79     LegendNANA
05:00 20.1 14.5 70 0.0       100.77     LegendNANA
06:00 20.5 15.4 72 0.0       100.84 25   LegendNANA
07:00 21.5 16.8 75 0.0       100.85 27   LegendNANA
08:00 21.9 17.1 74 0.0       100.87 27   LegendNANA
09:00 22.3 17.5 74 0.0       100.87 28   LegendNANA
10:00 22.8 18.2 75 0.0       100.85 29   LegendNANA
11:00 23.7 18.8 74 0.0       100.82 30   LegendNANA
12:00 25.0 19.6 72 0.0       100.77 32   LegendNANA
13:00 25.3 19.4 70 0.0       100.79 32   LegendNANA
14:00 26.5 20.2 68 0.0       100.70 34   LegendNANA
15:00 26.5 20.5 70 0.0       100.63 34   LegendNANA
16:00 26.4 20.8 71 0.0       100.62 35   LegendNANA
17:00 25.2 20.9 77 0.0       100.63 34   LegendNANA
18:00 25.0 21.0 78 0.0       100.66 33   LegendNANA
19:00 22.8 20.8 88 4.0       100.66 31   LegendNANA
20:00 22.3 21.2 94 0.3       100.62 31   LegendNANA
21:00 22.8 21.7 94 0.2       100.62 32   LegendNANA
22:00 22.5 21.7 96 0.0       100.67 32   LegendNANA
23:00 22.4 21.8 96 0.0       100.65 32   LegendNANA

Notes on Data Quality.

Legend

  • E = Estimated
  • M = Missing
  • NA = Not Available*
  • [empty] = Indicates an unobserved value
Date modified: